JP7FSO Weather Reports


Display with metric or nautical units.
time (UTC)temp
F
wind
direction
speed
MPH
gust
MPH
rain 1hr
in
rain 24hr
in
rain mn
in
humidity
%
barometer
mb
20260505173052 50 260 0.0 0.0 0.00 0.00 0.00 71 1013.2
20260505171559 51 272 0.0 0.0 0.00 0.00 0.00 70 1013.1
20260505170013 51 186 0.0 0.0 0.00 0.00 0.00 69 1013.1
20260505164504 51 285 0.0 0.0 0.00 0.00 0.00 68 1013.1
20260505163012 52 255 0.0 0.0 0.00 0.00 0.00 67 1013.1
20260505161509 53 350 0.0 0.0 0.00 0.00 0.00 65 1013.0
20260505153108 55 314 0.0 0.0 0.00 0.00 0.00 62 1013.1
20260505151532 55 249 0.0 0.0 0.00 0.00 0.00 60 1012.9
20260505124600 56 204 0.0 0.0 0.00 0.00 0.05 58 1012.8
20260505123000 56 264 0.0 0.0 0.00 0.00 0.05 56 1012.7
20260505121614 56 209 0.0 0.0 0.00 0.00 0.05 55 1012.7
20260505120016 57 259 0.0 0.0 0.00 0.00 0.05 54 1012.7
20260505114520 58 243 0.0 0.0 0.00 0.00 0.05 53 1012.7
20260505113106 59 276 0.0 0.0 0.00 0.00 0.05 50 1012.7
20260505111538 60 281 0.0 0.0 0.00 0.00 0.05 48 1012.3
20260505101522 63 248 0.0 0.0 0.00 0.00 0.05 40 1011.5
20260505100055 64 283 0.0 0.0 0.00 0.00 0.05 39 1011.4
20260505094608 65 254 0.0 0.0 0.00 0.00 0.05 37 1011.2
20260505091514 67 224 0.0 0.0 0.00 0.00 0.05 31 1011.1
20260505090017 68 224 0.0 0.0 0.00 0.00 0.05 31 1010.8
20260505084524 69 224 0.0 0.0 0.00 0.00 0.05 30 1010.6
20260505083005 70 263 0.0 0.0 0.00 0.00 0.05 27 1010.7
20260505081527 72 273 0.0 0.0 0.00 0.00 0.05 27 1010.8
20260505080030 73 147 0.0 0.0 0.00 0.00 0.05 27 1010.6
20260505074529 74 256 1.0 0.0 0.00 0.00 0.05 25 1010.6
20260505073006 74 212 0.0 0.0 0.00 0.00 0.05 26 1010.6
20260505071602 74 159 1.0 0.0 0.00 0.00 0.05 27 1010.5
20260505064506 74 309 1.0 0.0 0.00 0.00 0.05 25 1010.5
20260505063004 75 116 0.0 0.0 0.00 0.00 0.05 24 1010.6
20260505061503 74 276 1.0 0.0 0.00 0.00 0.05 26 1010.6
20260505060007 74 261 1.0 0.0 0.00 0.00 0.05 25 1010.6
20260505054510 74 271 1.0 0.0 0.00 0.00 0.05 25 1010.6
20260505053024 74 264 2.0 0.0 0.00 0.00 0.05 26 1010.6
20260505051502 74 253 0.0 0.0 0.00 0.00 0.05 24 1010.6
20260505041524 75 319 2.0 0.0 0.00 0.00 0.05 25 1010.6
20260505034559 73 211 2.0 0.0 0.00 0.00 0.05 27 1010.9
20260505033103 72 276 2.0 0.0 0.00 0.00 0.05 27 1011.0
20260505031516 71 250 2.0 0.0 0.00 0.00 0.05 27 1011.2
20260505030005 71 276 3.0 0.0 0.00 0.00 0.05 28 1011.4
20260505024529 72 186 2.0 0.0 0.00 0.00 0.05 28 1011.5
20260505023105 71 310 1.0 0.0 0.00 0.00 0.05 28 1011.5
20260505021608 69 294 2.0 0.0 0.00 0.00 0.05 29 1011.5
20260505020036 68 250 3.0 0.0 0.00 0.00 0.05 28 1011.7
20260505014526 68 271 2.0 0.0 0.00 0.00 0.05 31 1011.7
20260505013004 67 142 2.0 0.0 0.00 0.00 0.05 33 1011.4
20260505011502 66 314 2.0 0.0 0.00 0.00 0.05 35 1011.6
20260505010103 65 249 2.0 0.0 0.00 0.00 0.05 40 1011.4
20260505004557 64 288 1.0 0.0 0.00 0.00 0.05 38 1011.2
20260505003014 62 246 0.0 0.0 0.00 0.00 0.05 44 1011.2
20260505001510 61 300 0.0 0.0 0.00 0.00 0.05 45 1011.1
20260505000109 61 212 1.0 0.0 0.00 0.00 0.05 46 1010.6
20260504234516 60 260 2.0 0.0 0.00 0.00 0.05 43 1010.5
20260504231504 58 259 2.0 0.0 0.00 0.00 0.05 51 1010.2
20260504230107 57 287 0.0 0.0 0.00 0.00 0.05 56 1010.2
20260504224504 56 280 0.0 0.0 0.00 0.00 0.05 60 1010.1
20260504223013 55 287 0.0 0.0 0.00 0.00 0.05 60 1009.7
20260504221529 54 257 1.0 0.0 0.00 0.00 0.05 62 1009.5
20260504220100 52 242 1.0 0.0 0.00 0.00 0.05 64 1009.4
20260504214515 51 321 1.0 0.0 0.00 0.00 0.05 67 1009.0
20260504213112 51 268 3.0 0.0 0.00 0.00 0.05 69 1008.9
20260504211533 49 300 3.0 0.0 0.00 0.00 0.05 71 1009.0
20260504210106 49 274 3.0 0.0 0.00 0.00 0.05 71 1008.6
20260504204604 49 289 2.0 0.0 0.00 0.00 0.05 73 1008.2
20260504203029 48 297 2.0 0.0 0.00 0.00 0.05 76 1008.1
20260504201514 47 330 2.0 0.0 0.00 0.00 0.05 78 1008.0
20260504200004 47 279 1.0 0.0 0.00 0.00 0.05 78 1007.8
20260504194517 46 279 0.0 0.0 0.00 0.00 0.05 78 1007.6
20260504193027 47 269 0.0 0.0 0.00 0.00 0.05 76 1007.6
20260504191528 47 276 0.0 0.0 0.00 0.00 0.05 75 1007.3
20260504190029 47 358 2.0 0.0 0.00 0.00 0.04 74 1007.3
20260504184507 48 262 4.0 0.0 0.00 0.00 0.03 70 1006.4
20260504183005 49 296 4.0 0.0 0.00 0.00 0.02 65 1005.9
20260504180034 49 282 1.0 0.0 0.00 0.00 0.01 67 1005.7
20260504174508 49 274 1.0 0.0 0.00 0.00 0.01 67 1005.4